Time,TemperatureF,DewpointF,PressureIn,WindDirection,WindDirectionDegrees,WindSpeedMPH,WindSpeedGustMPH,Humidity,HourlyPrecipIn,Conditions,Clouds,dailyrainin,SoftwareType,DateUTC
2013-02-16 00:00:00,26.1,-23.1,29.90,NNE,23,0.0,0.0,1,0.00,,,0.00,WUHU216HW,2013-02-16 05:00:00,
2013-02-16 00:05:00,26.3,-22.9,29.90,NNE,23,0.0,0.0,1,0.00,,,0.00,WUHU216HW,2013-02-16 05:05:00,
2013-02-16 00:10:00,26.3,-22.9,29.90,NNE,23,0.0,0.0,1,0.00,,,0.00,WUHU216HW,2013-02-16 05:10:00,
2013-02-16 00:15:00,26.3,-22.9,29.90,NNE,23,0.0,0.0,1,0.00,,,0.00,WUHU216HW,2013-02-16 05:15:00,
2013-02-16 00:20:00,26.3,-22.9,29.90,NNE,23,0.0,0.0,1,0.00,,,0.00,WUHU216HW,2013-02-16 05:20:00,
2013-02-16 00:23:00,26.3,-22.9,29.90,NNE,23,0.0,0.0,1,0.00,,,0.00,WUHU216HW,2013-02-16 05:23:00,
2013-02-16 00:28:00,26.1,-23.1,29.90,NNE,23,0.0,0.0,1,0.00,,,0.00,WUHU216HW,2013-02-16 05:28:00,
2013-02-16 00:33:00,26.1,-23.1,29.91,NNE,23,0.0,0.0,1,0.00,,,0.00,WUHU216HW,2013-02-16 05:33:00,
2013-02-16 00:38:00,26.3,-22.9,29.91,NNE,23,0.0,0.0,1,0.00,,,0.00,WUHU216HW,2013-02-16 05:38:00,
2013-02-16 00:43:00,26.6,-22.7,29.90,NNE,23,0.0,0.0,1,0.00,,,0.00,WUHU216HW,2013-02-16 05:43:00,
2013-02-16 00:48:00,27.0,-22.4,29.91,NNE,23,0.0,0.0,1,0.00,,,0.00,WUHU216HW,2013-02-16 05:48:00,
2013-02-16 00:53:00,27.4,-22.1,29.91,NNE,23,0.0,0.0,1,0.00,,,0.00,WUHU216HW,2013-02-16 05:53:00,
2013-02-16 00:58:00,27.5,-22.0,29.91,NNE,23,0.0,0.0,1,0.00,,,0.00,WUHU216HW,2013-02-16 05:58:00,
2013-02-16 01:03:00,27.7,-21.8,29.91,NNE,23,0.0,0.0,1,0.00,,,0.00,WUHU216HW,2013-02-16 06:03:00,
2013-02-16 01:08:00,27.9,-21.7,29.91,NNE,23,0.0,0.0,1,0.00,,,0.00,WUHU216HW,2013-02-16 06:08:00,
2013-02-16 01:13:00,28.1,-21.5,29.91,NNE,23,0.0,0.0,1,0.00,,,0.00,WUHU216HW,2013-02-16 06:13:00,
2013-02-16 01:18:00,28.1,-21.5,29.90,NNE,23,0.0,0.0,1,0.00,,,0.00,WUHU216HW,2013-02-16 06:18:00,
2013-02-16 01:23:00,28.3,-21.4,29.90,NNE,23,0.0,0.7,1,0.00,,,0.00,WUHU216HW,2013-02-16 06:23:00,
2013-02-16 01:28:00,28.4,-21.2,29.90,NNE,23,0.0,0.7,1,0.00,,,0.00,WUHU216HW,2013-02-16 06:28:00,
2013-02-16 01:33:00,28.4,-21.2,29.91,NNE,23,0.0,0.4,1,0.00,,,0.00,WUHU216HW,2013-02-16 06:33:00,
2013-02-16 01:38:00,28.6,-21.0,29.90,NNE,23,0.0,0.0,1,0.00,,,0.00,WUHU216HW,2013-02-16 06:38:00,
2013-02-16 01:43:00,28.6,-21.0,29.91,NNE,23,0.0,0.0,1,0.00,,,0.00,WUHU216HW,2013-02-16 06:43:00,
2013-02-16 01:48:00,28.8,-21.0,29.91,NNE,23,0.0,0.0,1,0.00,,,0.00,WUHU216HW,2013-02-16 06:48:00,
2013-02-16 01:53:00,28.8,-21.0,29.90,NNE,23,0.0,0.0,1,0.00,,,0.00,WUHU216HW,2013-02-16 06:53:00,
2013-02-16 01:58:00,29.2,-20.7,29.90,NNE,23,0.0,0.0,1,0.00,,,0.00,WUHU216HW,2013-02-16 06:58:00,
2013-02-16 02:03:00,29.2,-20.7,29.90,NNE,23,0.0,0.0,1,0.00,,,0.00,WUHU216HW,2013-02-16 07:03:00,
2013-02-16 02:08:00,29.2,-20.7,29.90,NNE,23,0.0,0.0,1,0.00,,,0.00,WUHU216HW,2013-02-16 07:08:00,
2013-02-16 02:13:00,29.3,-20.5,29.90,NNE,23,0.0,0.0,1,0.00,,,0.00,WUHU216HW,2013-02-16 07:13:00,
2013-02-16 02:18:00,29.5,-20.3,29.90,NNE,23,0.0,0.0,1,0.00,,,0.00,WUHU216HW,2013-02-16 07:18:00,
2013-02-16 02:23:00,29.7,-20.2,29.90,NNE,23,0.0,0.0,1,0.00,,,0.00,WUHU216HW,2013-02-16 07:23:00,
2013-02-16 02:28:00,29.7,-20.2,29.90,NNE,23,0.0,0.0,1,0.00,,,0.00,WUHU216HW,2013-02-16 07:28:00,
2013-02-16 02:33:00,29.9,-20.1,29.90,NNE,23,0.0,0.0,1,0.00,,,0.00,WUHU216HW,2013-02-16 07:33:00,
2013-02-16 02:37:00,29.9,-20.1,29.90,North,0,0.0,0.0,1,0.00,,,0.00,WUHU216HW,2013-02-16 07:37:00,
2013-02-16 02:42:00,30.1,-20.0,29.91,North,0,0.0,0.0,1,0.00,,,0.00,WUHU216HW,2013-02-16 07:42:00,
2013-02-16 02:47:00,30.2,-19.8,29.91,NNE,23,0.0,1.6,1,0.00,,,0.00,WUHU216HW,2013-02-16 07:47:00,
2013-02-16 02:52:00,30.2,-19.8,29.91,NE,45,0.0,1.6,1,0.00,,,0.00,WUHU216HW,2013-02-16 07:52:00,
2013-02-16 02:57:00,30.2,-19.8,29.91,NE,45,0.0,0.4,1,0.00,,,0.00,WUHU216HW,2013-02-16 07:57:00,
2013-02-16 03:02:00,30.2,-19.8,29.89,SE,135,0.0,0.2,1,0.00,,,0.00,WUHU216HW,2013-02-16 08:02:00,
2013-02-16 03:07:00,30.4,-19.6,29.88,NE,45,0.4,1.6,1,0.00,,,0.00,WUHU216HW,2013-02-16 08:07:00,
2013-02-16 03:12:00,30.4,-19.6,29.89,NNE,23,1.8,1.8,1,0.00,,,0.00,WUHU216HW,2013-02-16 08:12:00,
2013-02-16 03:17:00,30.6,-19.5,29.90,North,0,0.0,1.8,1,0.00,,,0.00,WUHU216HW,2013-02-16 08:17:00,
2013-02-16 03:22:00,31.0,-19.3,29.91,North,0,0.7,3.4,1,0.00,,,0.00,WUHU216HW,2013-02-16 08:22:00,
2013-02-16 03:27:00,31.3,-18.9,29.91,NE,45,1.8,4.0,1,0.00,,,0.00,WUHU216HW,2013-02-16 08:27:00,
2013-02-16 03:32:00,32.0,-18.4,29.91,NNE,23,3.8,7.4,1,0.00,,,0.00,WUHU216HW,2013-02-16 08:32:00,
2013-02-16 03:37:00,32.8,-17.8,29.91,North,0,1.6,9.2,1,0.00,,,0.00,WUHU216HW,2013-02-16 08:37:00,
2013-02-16 03:42:00,33.1,-17.6,29.90,North,0,4.0,9.2,1,0.00,,,0.00,WUHU216HW,2013-02-16 08:42:00,
2013-02-16 03:47:00,33.3,-17.4,29.91,North,0,3.4,10.5,1,0.00,,,0.00,WUHU216HW,2013-02-16 08:47:00,
2013-02-16 03:52:00,33.3,-17.4,29.90,NNE,23,2.0,10.5,1,0.00,,,0.00,WUHU216HW,2013-02-16 08:52:00,
2013-02-16 03:57:00,33.1,-17.6,29.91,NE,45,8.7,8.7,1,0.00,,,0.00,WUHU216HW,2013-02-16 08:57:00,
2013-02-16 04:02:00,32.9,-17.7,29.91,NNE,23,5.8,8.7,1,0.00,,,0.00,WUHU216HW,2013-02-16 09:02:00,
2013-02-16 04:07:00,32.8,-17.8,29.91,NNW,338,1.1,8.7,1,0.00,,,0.00,WUHU216HW,2013-02-16 09:07:00,
2013-02-16 04:12:00,32.6,-18.0,29.92,NNE,23,1.8,6.5,1,0.00,,,0.00,WUHU216HW,2013-02-16 09:12:00,
2013-02-16 04:17:00,32.6,-18.0,29.92,NE,45,2.2,6.3,1,0.00,,,0.00,WUHU216HW,2013-02-16 09:17:00,
2013-02-16 04:22:00,32.4,-18.1,29.92,NNE,23,0.7,3.1,1,0.00,,,0.00,WUHU216HW,2013-02-16 09:22:00,
2013-02-16 04:27:00,32.2,-18.3,29.91,North,0,2.5,3.1,1,0.00,,,0.00,WUHU216HW,2013-02-16 09:27:00,
2013-02-16 04:32:00,32.2,-18.3,29.91,NNE,23,3.1,3.1,1,0.00,,,0.00,WUHU216HW,2013-02-16 09:32:00,
2013-02-16 04:37:00,32.0,-18.4,29.91,NE,45,1.6,3.1,1,0.00,,,0.00,WUHU216HW,2013-02-16 09:37:00,
2013-02-16 04:42:00,32.0,-18.4,29.91,NE,45,0.0,3.1,1,0.00,,,0.00,WUHU216HW,2013-02-16 09:42:00,
2013-02-16 04:47:00,32.0,-18.4,29.91,NNE,23,0.0,1.1,1,0.00,,,0.00,WUHU216HW,2013-02-16 09:47:00,
2013-02-16 04:52:00,32.0,-18.4,29.91,ESE,113,1.1,2.5,1,0.00,,,0.00,WUHU216HW,2013-02-16 09:52:00,
2013-02-16 04:57:00,32.0,-18.4,29.91,NNE,23,0.9,2.5,1,0.00,,,0.00,WUHU216HW,2013-02-16 09:57:00,
2013-02-16 05:02:00,31.9,-18.5,29.91,North,0,0.0,1.1,1,0.00,,,0.00,WUHU216HW,2013-02-16 10:02:00,
2013-02-16 05:07:00,31.9,-18.5,29.91,North,0,0.0,1.1,1,0.00,,,0.00,WUHU216HW,2013-02-16 10:07:00,
2013-02-16 05:12:00,31.7,-18.6,29.90,NE,45,0.0,1.3,1,0.00,,,0.00,WUHU216HW,2013-02-16 10:12:00,
2013-02-16 05:17:00,31.7,-18.6,29.90,North,0,0.7,1.3,1,0.00,,,0.00,WUHU216HW,2013-02-16 10:17:00,
2013-02-16 05:22:00,31.7,-18.6,29.91,ENE,68,0.2,1.1,1,0.00,,,0.00,WUHU216HW,2013-02-16 10:22:00,
2013-02-16 05:27:00,31.7,-18.6,29.91,North,0,0.0,1.1,1,0.00,,,0.00,WUHU216HW,2013-02-16 10:27:00,
2013-02-16 05:32:00,31.7,-18.6,29.91,North,0,0.4,1.1,1,0.00,,,0.00,WUHU216HW,2013-02-16 10:32:00,
2013-02-16 05:37:00,31.7,-18.6,29.91,NNE,23,0.0,1.1,1,0.00,,,0.00,WUHU216HW,2013-02-16 10:37:00,
2013-02-16 05:42:00,31.7,-18.6,29.91,North,0,0.2,0.9,1,0.00,,,0.00,WUHU216HW,2013-02-16 10:42:00,
2013-02-16 05:47:00,31.5,-18.8,29.90,North,0,0.0,0.9,1,0.00,,,0.00,WUHU216HW,2013-02-16 10:47:00,
2013-02-16 05:52:00,31.5,-18.8,29.90,NNE,23,0.2,0.7,1,0.00,,,0.00,WUHU216HW,2013-02-16 10:52:00,
2013-02-16 05:57:00,31.5,-18.8,29.90,NNE,23,1.8,1.8,1,0.00,,,0.00,WUHU216HW,2013-02-16 10:57:00,
2013-02-16 06:02:00,31.5,-18.8,29.90,NNE,23,0.0,1.8,1,0.00,,,0.00,WUHU216HW,2013-02-16 11:02:00,
2013-02-16 06:07:00,31.5,-18.8,29.90,NNE,23,0.0,1.8,1,0.00,,,0.00,WUHU216HW,2013-02-16 11:07:00,
2013-02-16 06:12:00,31.3,-18.9,29.90,NNE,23,0.0,0.2,1,0.00,,,0.00,WUHU216HW,2013-02-16 11:12:00,
2013-02-16 06:17:00,31.3,-18.9,29.90,North,0,0.0,0.7,1,0.00,,,0.00,WUHU216HW,2013-02-16 11:17:00,
2013-02-16 06:22:00,31.3,-18.9,29.90,NNE,23,0.2,0.9,1,0.00,,,0.00,WUHU216HW,2013-02-16 11:22:00,
2013-02-16 06:27:00,31.3,-18.9,29.90,NE,45,0.0,0.9,1,0.00,,,0.00,WUHU216HW,2013-02-16 11:27:00,
2013-02-16 06:32:00,31.3,-18.9,29.90,NNE,23,0.0,0.7,1,0.00,,,0.00,WUHU216HW,2013-02-16 11:32:00,
2013-02-16 06:37:00,31.3,-18.9,29.91,NNE,23,0.0,0.9,1,0.00,,,0.00,WUHU216HW,2013-02-16 11:37:00,
2013-02-16 06:42:00,31.3,-18.9,29.91,NNE,23,0.4,0.9,1,0.00,,,0.00,WUHU216HW,2013-02-16 11:42:00,
2013-02-16 06:47:00,31.3,-18.9,29.91,NNE,23,0.0,0.7,1,0.00,,,0.00,WUHU216HW,2013-02-16 11:47:00,
2013-02-16 06:52:00,31.3,-18.9,29.90,NNE,23,0.0,0.7,1,0.00,,,0.00,WUHU216HW,2013-02-16 11:52:00,
2013-02-16 06:57:00,31.3,-18.9,29.90,North,0,0.0,1.1,1,0.00,,,0.00,WUHU216HW,2013-02-16 11:57:00,
2013-02-16 07:02:00,31.3,-18.9,29.90,North,0,0.0,1.1,1,0.00,,,0.00,WUHU216HW,2013-02-16 12:02:00,
2013-02-16 07:07:00,31.3,-18.9,29.90,North,0,0.0,0.4,1,0.00,,,0.00,WUHU216HW,2013-02-16 12:07:00,
2013-02-16 07:12:00,31.5,-18.8,29.90,NNE,23,0.0,0.4,1,0.00,,,0.00,WUHU216HW,2013-02-16 12:12:00,
2013-02-16 07:17:00,31.7,-18.6,29.90,NE,45,0.9,1.1,1,0.00,,,0.00,WUHU216HW,2013-02-16 12:17:00,
2013-02-16 07:22:00,31.7,-18.6,29.90,NNE,23,1.1,1.3,1,0.00,,,0.00,WUHU216HW,2013-02-16 12:22:00,
2013-02-16 07:27:00,31.9,-18.5,29.90,NE,45,0.7,1.3,1,0.00,,,0.00,WUHU216HW,2013-02-16 12:27:00,
2013-02-16 07:32:00,31.9,-18.5,29.90,North,0,0.4,1.1,1,0.00,,,0.00,WUHU216HW,2013-02-16 12:32:00,
2013-02-16 07:37:00,31.7,-18.6,29.91,NNE,23,0.0,0.7,1,0.00,,,0.00,WUHU216HW,2013-02-16 12:37:00,
2013-02-16 07:42:00,31.9,-18.5,29.91,NNE,23,0.0,1.3,1,0.00,,,0.00,WUHU216HW,2013-02-16 12:42:00,
2013-02-16 07:47:00,31.9,-18.5,29.91,NNE,23,0.0,1.3,1,0.00,,,0.00,WUHU216HW,2013-02-16 12:47:00,
2013-02-16 07:52:00,31.9,-18.5,29.90,North,0,0.9,1.3,1,0.00,,,0.00,WUHU216HW,2013-02-16 12:52:00,
2013-02-16 07:57:00,32.0,-18.4,29.90,NE,45,0.0,1.3,1,0.00,,,0.00,WUHU216HW,2013-02-16 12:57:00,
2013-02-16 08:02:00,32.0,-18.4,29.90,NE,45,0.2,0.9,1,0.00,,,0.00,WUHU216HW,2013-02-16 13:02:00,
2013-02-16 08:07:00,32.0,-18.4,29.90,NNE,23,0.0,0.7,1,0.00,,,0.00,WUHU216HW,2013-02-16 13:07:00,
2013-02-16 08:12:00,32.2,-18.3,29.91,NNW,338,0.0,0.7,1,0.00,,,0.00,WUHU216HW,2013-02-16 13:12:00,
2013-02-16 08:17:00,32.4,-18.1,29.90,North,0,0.0,0.4,1,0.00,,,0.00,WUHU216HW,2013-02-16 13:17:00,
2013-02-16 08:22:00,32.6,-18.0,29.90,North,0,0.0,0.4,1,0.00,,,0.00,WUHU216HW,2013-02-16 13:22:00,
2013-02-16 08:27:00,32.8,-17.8,29.90,North,0,0.0,0.0,1,0.00,,,0.00,WUHU216HW,2013-02-16 13:27:00,
2013-02-16 08:32:00,32.9,-17.7,29.90,North,0,0.0,0.0,1,0.00,,,0.00,WUHU216HW,2013-02-16 13:32:00,
2013-02-16 08:37:00,33.1,-17.6,29.91,NNE,23,0.0,0.4,1,0.00,,,0.00,WUHU216HW,2013-02-16 13:37:00,
2013-02-16 08:42:00,33.5,-17.4,29.91,NNE,23,0.0,0.4,1,0.00,,,0.00,WUHU216HW,2013-02-16 13:42:00,
2013-02-16 08:47:00,33.7,-17.2,29.91,North,0,0.0,0.2,1,0.00,,,0.00,WUHU216HW,2013-02-16 13:47:00,
2013-02-16 08:52:00,33.8,-17.1,29.91,North,0,0.0,0.2,1,0.00,,,0.00,WUHU216HW,2013-02-16 13:52:00,
2013-02-16 08:57:00,34.0,-16.9,29.91,NNE,23,0.0,0.7,1,0.00,,,0.00,WUHU216HW,2013-02-16 13:57:00,
2013-02-16 09:02:00,34.2,-16.8,29.91,NNE,23,0.4,0.7,1,0.00,,,0.00,WUHU216HW,2013-02-16 14:02:00,
2013-02-16 09:07:00,34.2,-16.8,29.91,North,0,0.0,0.4,1,0.00,,,0.00,WUHU216HW,2013-02-16 14:07:00,
2013-02-16 09:12:00,34.4,-16.6,29.90,NNE,23,0.0,0.4,1,0.00,,,0.00,WUHU216HW,2013-02-16 14:12:00,
2013-02-16 09:17:00,34.7,-16.4,29.90,North,0,0.0,0.7,1,0.00,,,0.00,WUHU216HW,2013-02-16 14:17:00,
2013-02-16 09:22:00,34.9,-16.2,29.90,NNE,23,0.7,1.3,1,0.00,,,0.00,WUHU216HW,2013-02-16 14:22:00,
2013-02-16 09:27:00,35.3,-15.9,29.90,NNE,23,0.2,1.3,1,0.00,,,0.00,WUHU216HW,2013-02-16 14:27:00,
2013-02-16 09:32:00,35.5,-15.8,29.90,NE,45,0.0,1.6,1,0.00,,,0.00,WUHU216HW,2013-02-16 14:32:00,
2013-02-16 09:37:00,35.6,-15.7,29.90,North,0,0.0,1.6,1,0.00,,,0.00,WUHU216HW,2013-02-16 14:37:00,
2013-02-16 09:42:00,36.0,-15.4,29.90,NNE,23,0.0,0.7,1,0.00,,,0.00,WUHU216HW,2013-02-16 14:42:00,
2013-02-16 09:47:00,36.4,-15.1,29.89,North,0,0.7,0.7,1,0.01,,,0.01,WUHU216HW,2013-02-16 14:47:00,
2013-02-16 09:52:00,36.7,-14.7,29.90,North,0,0.0,0.7,1,0.01,,,0.01,WUHU216HW,2013-02-16 14:52:00,
2013-02-16 09:57:00,37.1,-14.5,29.89,NNE,23,0.0,0.7,1,0.01,,,0.01,WUHU216HW,2013-02-16 14:57:00,
2013-02-16 10:02:00,37.6,-14.0,29.89,NNE,23,0.0,1.6,1,0.02,,,0.02,WUHU216HW,2013-02-16 15:02:00,
2013-02-16 10:07:00,38.2,-13.7,29.89,NNE,23,0.0,1.6,1,0.02,,,0.02,WUHU216HW,2013-02-16 15:07:00,
2013-02-16 10:12:00,38.7,-13.2,29.88,NE,45,1.1,1.1,1,0.02,,,0.02,WUHU216HW,2013-02-16 15:12:00,
2013-02-16 10:17:00,39.2,-12.8,29.88,NNE,23,4.7,4.7,1,0.03,,,0.03,WUHU216HW,2013-02-16 15:17:00,
2013-02-16 10:22:00,39.2,-12.8,29.88,NE,45,0.0,4.7,1,0.03,,,0.03,WUHU216HW,2013-02-16 15:22:00,
2013-02-16 10:27:00,38.5,-13.3,29.88,NNE,23,0.7,4.7,1,0.04,,,0.04,WUHU216HW,2013-02-16 15:27:00,
2013-02-16 10:32:00,37.8,-13.9,29.88,ENE,68,1.1,2.5,1,0.04,,,0.04,WUHU216HW,2013-02-16 15:32:00,
2013-02-16 10:37:00,37.4,-14.2,29.89,NE,45,1.6,2.5,1,0.04,,,0.04,WUHU216HW,2013-02-16 15:37:00,
2013-02-16 10:42:00,37.4,-14.2,29.89,NE,45,4.7,4.7,1,0.04,,,0.04,WUHU216HW,2013-02-16 15:42:00,
2013-02-16 10:47:00,37.4,-14.2,29.89,NE,45,0.2,4.7,1,0.04,,,0.05,WUHU216HW,2013-02-16 15:47:00,
2013-02-16 10:52:00,37.8,-13.9,29.88,North,0,0.2,4.7,1,0.04,,,0.05,WUHU216HW,2013-02-16 15:52:00,
2013-02-16 10:57:00,38.0,-13.8,29.88,NE,45,0.4,4.3,1,0.04,,,0.05,WUHU216HW,2013-02-16 15:57:00,
2013-02-16 11:02:00,38.0,-13.8,29.88,ENE,68,2.2,4.7,7,0.03,,,0.05,WUHU216HW,2013-02-16 16:02:00,
2013-02-16 11:07:00,38.0,-13.8,29.88,NE,45,0.0,4.7,7,0.03,,,0.05,WUHU216HW,2013-02-16 16:07:00,
2013-02-16 11:12:00,38.2,-13.7,29.89,North,0,0.0,2.2,5,0.02,,,0.05,WUHU216HW,2013-02-16 16:12:00,
2013-02-16 11:17:00,38.9,-13.0,29.88,NE,45,3.4,3.4,7,0.03,,,0.06,WUHU216HW,2013-02-16 16:17:00,
2013-02-16 11:22:00,39.6,-12.5,29.88,NNE,23,0.0,3.4,10,0.03,,,0.06,WUHU216HW,2013-02-16 16:22:00,
2013-02-16 11:27:00,40.3,-11.9,29.88,NE,45,0.9,3.8,10,0.02,,,0.06,WUHU216HW,2013-02-16 16:27:00,
2013-02-16 11:32:00,40.1,10.4,29.87,North,0,3.4,6.9,29,0.02,,,0.06,WUHU216HW,2013-02-16 16:32:00,
2013-02-16 11:37:00,39.8,12.9,29.87,NNE,23,4.5,6.9,33,0.02,,,0.06,WUHU216HW,2013-02-16 16:37:00,
2013-02-16 11:42:00,39.6,11.4,29.87,NE,45,6.3,6.3,31,0.01,,,0.06,WUHU216HW,2013-02-16 16:42:00,
2013-02-16 11:47:00,39.8,10.9,29.87,NE,45,4.7,7.4,30,0.01,,,0.06,WUHU216HW,2013-02-16 16:47:00,
2013-02-16 11:52:00,39.1,17.8,29.87,North,0,3.8,7.4,42,0.02,,,0.07,WUHU216HW,2013-02-16 16:52:00,
2013-02-16 11:57:00,39.1,16.1,29.87,NE,45,5.4,7.4,39,0.02,,,0.07,WUHU216HW,2013-02-16 16:57:00,
2013-02-16 12:02:00,39.1,15.5,29.86,NE,45,3.4,7.4,38,0.02,,,0.07,WUHU216HW,2013-02-16 17:02:00,
2013-02-16 12:07:00,39.1,16.1,29.86,North,0,0.0,5.8,39,0.02,,,0.07,WUHU216HW,2013-02-16 17:07:00,
2013-02-16 12:12:00,39.2,18.0,29.86,NNE,23,4.9,6.5,42,0.02,,,0.07,WUHU216HW,2013-02-16 17:12:00,
2013-02-16 12:17:00,39.1,17.8,29.86,NNW,338,0.7,6.5,42,0.01,,,0.07,WUHU216HW,2013-02-16 17:17:00,
2013-02-16 12:22:00,39.1,18.8,29.85,NNE,23,2.5,4.9,44,0.01,,,0.07,WUHU216HW,2013-02-16 17:22:00,
2013-02-16 12:27:00,38.9,17.6,29.85,NNE,23,3.4,4.0,42,0.01,,,0.07,WUHU216HW,2013-02-16 17:27:00,
2013-02-16 12:32:00,39.1,16.7,29.85,NNE,23,4.7,4.7,40,0.01,,,0.07,WUHU216HW,2013-02-16 17:32:00,
2013-02-16 12:37:00,39.6,17.7,29.85,NNE,23,0.0,4.9,41,0.01,,,0.07,WUHU216HW,2013-02-16 17:37:00,
2013-02-16 12:42:00,39.6,19.9,29.85,NE,45,1.8,4.9,45,0.01,,,0.07,WUHU216HW,2013-02-16 17:42:00,
2013-02-16 12:47:00,39.8,19.0,29.85,NNE,23,0.2,2.9,43,0.01,,,0.07,WUHU216HW,2013-02-16 17:47:00,
2013-02-16 12:52:00,40.0,21.3,29.84,NE,45,2.9,2.9,47,0.00,,,0.07,WUHU216HW,2013-02-16 17:52:00,
2013-02-16 12:57:00,40.0,21.8,29.84,NE,45,5.6,5.6,48,0.00,,,0.07,WUHU216HW,2013-02-16 17:57:00,
2013-02-16 13:02:00,39.8,21.6,29.84,NNE,23,3.1,5.6,48,0.00,,,0.07,WUHU216HW,2013-02-16 18:02:00,
2013-02-16 13:07:00,39.8,21.1,29.83,NE,45,1.1,5.6,47,0.00,,,0.07,WUHU216HW,2013-02-16 18:07:00,
2013-02-16 13:12:00,40.0,21.3,29.84,ENE,68,3.1,4.0,47,0.00,,,0.07,WUHU216HW,2013-02-16 18:12:00,
2013-02-16 13:17:00,40.0,22.2,29.83,SSE,158,4.0,4.3,49,0.00,,,0.07,WUHU216HW,2013-02-16 18:17:00,
2013-02-16 13:22:00,39.8,22.6,29.83,NNE,23,0.0,4.3,50,0.00,,,0.07,WUHU216HW,2013-02-16 18:22:00,
2013-02-16 13:27:00,39.4,21.2,29.83,SSE,158,1.6,4.0,48,0.00,,,0.07,WUHU216HW,2013-02-16 18:27:00,
2013-02-16 13:32:00,39.2,21.1,29.83,North,0,1.8,3.6,48,0.00,,,0.07,WUHU216HW,2013-02-16 18:32:00,
2013-02-16 13:37:00,39.2,21.6,29.82,ENE,68,0.2,4.0,49,0.00,,,0.07,WUHU216HW,2013-02-16 18:37:00,
2013-02-16 13:42:00,39.2,21.6,29.82,East,90,0.0,4.0,49,0.00,,,0.07,WUHU216HW,2013-02-16 18:42:00,
2013-02-16 13:47:00,39.6,22.5,29.82,ENE,68,1.6,1.8,50,0.00,,,0.07,WUHU216HW,2013-02-16 18:47:00,
2013-02-16 13:52:00,39.8,22.2,29.82,NE,45,3.4,3.4,49,0.00,,,0.07,WUHU216HW,2013-02-16 18:52:00,
2013-02-16 13:57:00,40.1,23.0,29.82,North,0,2.0,5.1,50,0.00,,,0.07,WUHU216HW,2013-02-16 18:57:00,
2013-02-16 14:02:00,40.1,23.0,29.82,East,90,0.0,5.1,50,0.00,,,0.07,WUHU216HW,2013-02-16 19:02:00,
2013-02-16 14:07:00,40.1,23.0,29.82,ENE,68,6.3,6.3,50,0.00,,,0.07,WUHU216HW,2013-02-16 19:07:00,
2013-02-16 14:12:00,40.0,22.8,29.82,North,0,1.6,6.3,50,0.00,,,0.07,WUHU216HW,2013-02-16 19:12:00,
2013-02-16 14:17:00,40.1,23.0,29.82,NNE,23,0.9,6.3,50,0.00,,,0.07,WUHU216HW,2013-02-16 19:17:00,
2013-02-16 14:22:00,40.1,23.0,29.82,ESE,113,0.9,4.7,50,0.00,,,0.07,WUHU216HW,2013-02-16 19:22:00,
2013-02-16 14:27:00,40.3,23.1,29.82,ESE,113,3.8,4.7,50,0.00,,,0.07,WUHU216HW,2013-02-16 19:27:00,
2013-02-16 14:32:00,40.0,22.8,29.82,ENE,68,0.0,5.4,50,0.00,,,0.07,WUHU216HW,2013-02-16 19:32:00,
2013-02-16 14:37:00,40.1,23.4,29.82,ESE,113,0.9,5.4,51,0.00,,,0.07,WUHU216HW,2013-02-16 19:37:00,
2013-02-16 14:42:00,40.1,23.4,29.82,ENE,68,3.4,3.4,51,0.00,,,0.07,WUHU216HW,2013-02-16 19:42:00,
2013-02-16 14:47:00,40.1,23.4,29.82,East,90,0.4,3.6,51,0.00,,,0.07,WUHU216HW,2013-02-16 19:47:00,
2013-02-16 14:52:00,40.3,23.1,29.82,ESE,113,2.9,3.6,50,0.00,,,0.07,WUHU216HW,2013-02-16 19:52:00,
2013-02-16 14:57:00,40.3,23.1,29.82,ESE,113,0.4,3.4,50,0.00,,,0.07,WUHU216HW,2013-02-16 19:57:00,
2013-02-16 15:02:00,40.3,23.1,29.82,NNE,23,3.4,3.4,50,0.00,,,0.07,WUHU216HW,2013-02-16 20:02:00,
2013-02-16 15:07:00,40.3,23.6,29.81,ESE,113,0.4,3.4,51,0.00,,,0.07,WUHU216HW,2013-02-16 20:07:00,
2013-02-16 15:12:00,40.7,23.9,29.81,SSE,158,1.3,2.5,51,0.00,,,0.07,WUHU216HW,2013-02-16 20:12:00,
2013-02-16 15:17:00,40.5,23.8,29.82,ENE,68,0.9,2.7,51,0.00,,,0.07,WUHU216HW,2013-02-16 20:17:00,
2013-02-16 15:22:00,40.3,23.6,29.81,NE,45,1.3,2.7,51,0.00,,,0.07,WUHU216HW,2013-02-16 20:22:00,
2013-02-16 15:27:00,40.5,23.8,29.81,NE,45,0.4,1.6,51,0.00,,,0.07,WUHU216HW,2013-02-16 20:27:00,
2013-02-16 15:32:00,40.5,23.8,29.81,NE,45,0.0,2.9,51,0.00,,,0.07,WUHU216HW,2013-02-16 20:32:00,
2013-02-16 15:37:00,40.5,23.3,29.81,NNE,23,0.4,2.9,50,0.00,,,0.07,WUHU216HW,2013-02-16 20:37:00,
2013-02-16 15:42:00,40.3,23.6,29.81,North,0,1.3,4.3,51,0.00,,,0.07,WUHU216HW,2013-02-16 20:42:00,
2013-02-16 15:47:00,40.3,23.1,29.80,NNE,23,1.8,4.3,50,0.00,,,0.07,WUHU216HW,2013-02-16 20:47:00,
2013-02-16 15:52:00,40.3,23.6,29.80,North,0,1.1,4.9,51,0.00,,,0.07,WUHU216HW,2013-02-16 20:52:00,
2013-02-16 15:57:00,40.3,23.1,29.81,NNE,23,0.7,9.6,50,0.00,,,0.07,WUHU216HW,2013-02-16 20:57:00,
2013-02-16 16:02:00,40.1,23.4,29.80,ENE,68,0.4,9.6,51,0.00,,,0.07,WUHU216HW,2013-02-16 21:02:00,
2013-02-16 16:07:00,40.0,22.8,29.80,NNE,23,2.5,6.7,50,0.00,,,0.07,WUHU216HW,2013-02-16 21:07:00,
2013-02-16 16:12:00,39.8,22.6,29.80,NNE,23,4.3,6.7,50,0.00,,,0.07,WUHU216HW,2013-02-16 21:12:00,
2013-02-16 16:17:00,39.6,22.9,29.80,North,0,0.4,4.9,51,0.00,,,0.07,WUHU216HW,2013-02-16 21:17:00,
2013-02-16 16:22:00,39.2,22.6,29.80,NNE,23,2.5,10.7,51,0.00,,,0.07,WUHU216HW,2013-02-16 21:22:00,
2013-02-16 16:27:00,39.1,22.0,29.80,North,0,0.2,10.7,50,0.00,,,0.07,WUHU216HW,2013-02-16 21:27:00,
2013-02-16 16:32:00,38.7,22.1,29.79,ENE,68,7.8,7.8,51,0.00,,,0.07,WUHU216HW,2013-02-16 21:32:00,
2013-02-16 16:37:00,38.5,22.0,29.79,North,0,1.6,7.8,51,0.00,,,0.07,WUHU216HW,2013-02-16 21:37:00,
2013-02-16 16:42:00,38.5,22.0,29.79,NE,45,1.8,7.8,51,0.00,,,0.07,WUHU216HW,2013-02-16 21:42:00,
2013-02-16 16:47:00,38.2,22.1,29.79,NNE,23,3.4,4.7,52,0.00,,,0.07,WUHU216HW,2013-02-16 21:47:00,
2013-02-16 16:52:00,38.0,21.4,29.79,NNE,23,4.0,4.7,51,0.00,,,0.07,WUHU216HW,2013-02-16 21:52:00,
2013-02-16 16:57:00,37.6,21.5,29.79,North,0,2.5,4.0,52,0.00,,,0.07,WUHU216HW,2013-02-16 21:57:00,
2013-02-16 17:02:00,37.3,21.3,29.79,NE,45,3.1,4.0,52,0.00,,,0.07,WUHU216HW,2013-02-16 22:02:00,
2013-02-16 17:07:00,37.1,21.5,29.79,NNE,23,5.6,8.9,53,0.00,,,0.07,WUHU216HW,2013-02-16 22:07:00,
2013-02-16 17:12:00,36.7,20.7,29.79,North,0,0.4,8.9,52,0.00,,,0.07,WUHU216HW,2013-02-16 22:12:00,
2013-02-16 17:17:00,36.5,20.6,29.79,NNE,23,5.4,8.3,52,0.00,,,0.07,WUHU216HW,2013-02-16 22:17:00,
2013-02-16 17:22:00,36.4,20.9,29.79,NNE,23,0.9,8.3,53,0.00,,,0.07,WUHU216HW,2013-02-16 22:22:00,
2013-02-16 17:27:00,36.2,20.7,29.79,NNE,23,1.8,6.9,53,0.00,,,0.07,WUHU216HW,2013-02-16 22:27:00,
2013-02-16 17:32:00,36.0,20.5,29.79,North,0,2.5,6.0,53,0.00,,,0.07,WUHU216HW,2013-02-16 22:32:00,
2013-02-16 17:37:00,35.6,20.2,29.80,NNE,23,9.8,9.8,53,0.00,,,0.07,WUHU216HW,2013-02-16 22:37:00,
2013-02-16 17:42:00,35.5,20.0,29.80,NNE,23,1.1,9.8,53,0.00,,,0.07,WUHU216HW,2013-02-16 22:42:00,
2013-02-16 17:47:00,35.3,19.8,29.80,ENE,68,1.8,9.8,53,0.00,,,0.07,WUHU216HW,2013-02-16 22:47:00,
2013-02-16 17:52:00,35.1,20.1,29.81,ENE,68,1.1,4.5,54,0.00,,,0.07,WUHU216HW,2013-02-16 22:52:00,
2013-02-16 17:57:00,35.1,19.6,29.81,North,0,3.8,4.5,53,0.00,,,0.07,WUHU216HW,2013-02-16 22:57:00,
2013-02-16 18:02:00,34.9,19.4,29.81,NNE,23,1.1,5.4,53,0.00,,,0.07,WUHU216HW,2013-02-16 23:02:00,
2013-02-16 18:07:00,34.9,19.9,29.81,North,0,0.4,6.9,54,0.00,,,0.07,WUHU216HW,2013-02-16 23:07:00,
2013-02-16 18:12:00,34.7,19.3,29.81,NE,45,1.6,6.9,53,0.00,,,0.07,WUHU216HW,2013-02-16 23:12:00,
2013-02-16 18:17:00,34.7,19.3,29.81,NE,45,1.6,3.6,53,0.00,,,0.07,WUHU216HW,2013-02-16 23:17:00,
2013-02-16 18:22:00,34.6,19.1,29.81,NNE,23,0.0,1.8,53,0.00,,,0.07,WUHU216HW,2013-02-16 23:22:00,
2013-02-16 18:27:00,34.6,19.1,29.81,NE,45,1.8,4.0,53,0.00,,,0.07,WUHU216HW,2013-02-16 23:27:00,
2013-02-16 18:32:00,34.4,18.9,29.81,NE,45,3.6,6.3,53,0.00,,,0.07,WUHU216HW,2013-02-16 23:32:00,
2013-02-16 18:37:00,34.2,18.7,29.81,NE,45,1.1,6.3,53,0.00,,,0.07,WUHU216HW,2013-02-16 23:37:00,
2013-02-16 18:42:00,34.2,18.7,29.80,NE,45,1.8,5.4,53,0.00,,,0.07,WUHU216HW,2013-02-16 23:42:00,
2013-02-16 18:47:00,34.2,18.7,29.80,NNE,23,0.4,2.5,53,0.00,,,0.07,WUHU216HW,2013-02-16 23:47:00,
2013-02-16 18:52:00,34.0,18.5,29.80,NE,45,0.4,4.9,53,0.00,,,0.07,WUHU216HW,2013-02-16 23:52:00,
2013-02-16 18:57:00,34.0,19.0,29.80,ENE,68,7.6,7.6,54,0.00,,,0.07,WUHU216HW,2013-02-16 23:57:00,
2013-02-16 19:02:00,33.8,18.4,29.80,ENE,68,3.1,7.6,53,0.00,,,0.07,WUHU216HW,2013-02-17 00:02:00,
2013-02-16 19:07:00,33.8,18.8,29.79,NE,45,0.9,7.6,54,0.00,,,0.07,WUHU216HW,2013-02-17 00:07:00,
2013-02-16 19:12:00,33.7,18.6,29.80,NNE,23,0.4,4.9,54,0.00,,,0.07,WUHU216HW,2013-02-17 00:12:00,
2013-02-16 19:17:00,33.5,18.6,29.80,North,0,1.1,4.9,54,0.00,,,0.07,WUHU216HW,2013-02-17 00:17:00,
2013-02-16 19:22:00,33.5,18.6,29.80,NNE,23,5.4,5.4,54,0.00,,,0.07,WUHU216HW,2013-02-17 00:22:00,
2013-02-16 19:27:00,33.1,18.2,29.79,NE,45,1.8,5.4,54,0.00,,,0.07,WUHU216HW,2013-02-17 00:27:00,
2013-02-16 19:32:00,32.9,18.0,29.79,NNE,23,0.0,5.4,54,0.00,,,0.07,WUHU216HW,2013-02-17 00:32:00,
2013-02-16 19:37:00,32.9,18.5,29.79,NE,45,4.7,7.4,55,0.00,,,0.07,WUHU216HW,2013-02-17 00:37:00,
2013-02-16 19:42:00,32.8,17.8,29.79,ENE,68,1.1,7.4,54,0.00,,,0.07,WUHU216HW,2013-02-17 00:42:00,
2013-02-16 19:47:00,32.8,18.3,29.79,NNE,23,0.4,4.7,55,0.00,,,0.07,WUHU216HW,2013-02-17 00:47:00,
2013-02-16 19:52:00,32.8,18.3,29.79,NE,45,1.8,2.7,55,0.00,,,0.07,WUHU216HW,2013-02-17 00:52:00,
2013-02-16 19:57:00,32.6,17.7,29.79,East,90,2.0,3.1,54,0.00,,,0.07,WUHU216HW,2013-02-17 00:57:00,
2013-02-16 20:02:00,32.6,17.7,29.78,NE,45,2.0,3.1,54,0.00,,,0.07,WUHU216HW,2013-02-17 01:02:00,
2013-02-16 20:07:00,32.4,17.6,29.78,ENE,68,0.2,4.0,54,0.00,,,0.07,WUHU216HW,2013-02-17 01:07:00,
2013-02-16 20:12:00,32.4,18.0,29.78,NNE,23,2.5,4.0,55,0.00,,,0.07,WUHU216HW,2013-02-17 01:12:00,
2013-02-16 20:17:00,32.2,17.8,29.78,NE,45,1.1,3.8,55,0.00,,,0.07,WUHU216HW,2013-02-17 01:17:00,
2013-02-16 20:22:00,32.2,17.8,29.78,ENE,68,0.4,4.0,55,0.00,,,0.07,WUHU216HW,2013-02-17 01:22:00,
2013-02-16 20:27:00,32.0,17.6,29.78,NE,45,0.9,4.7,55,0.00,,,0.07,WUHU216HW,2013-02-17 01:27:00,
2013-02-16 20:32:00,32.0,17.6,29.78,North,0,0.2,4.7,55,0.00,,,0.07,WUHU216HW,2013-02-17 01:32:00,
2013-02-16 20:37:00,32.0,17.2,29.78,NNE,23,0.9,3.1,54,0.00,,,0.07,WUHU216HW,2013-02-17 01:37:00,
2013-02-16 20:42:00,32.0,17.2,29.78,North,0,0.7,3.6,54,0.00,,,0.07,WUHU216HW,2013-02-17 01:42:00,
2013-02-16 20:47:00,32.0,17.2,29.78,North,0,1.6,4.5,54,0.00,,,0.07,WUHU216HW,2013-02-17 01:47:00,
2013-02-16 20:52:00,32.0,17.2,29.78,North,0,2.9,6.3,54,0.00,,,0.07,WUHU216HW,2013-02-17 01:52:00,
2013-02-16 20:57:00,31.9,17.0,29.77,NE,45,4.3,6.3,54,0.00,,,0.07,WUHU216HW,2013-02-17 01:57:00,
2013-02-16 21:02:00,31.9,17.0,29.77,NNE,23,1.6,4.3,54,0.00,,,0.07,WUHU216HW,2013-02-17 02:02:00,
2013-02-16 21:07:00,31.7,16.8,29.77,ENE,68,0.0,4.3,54,0.00,,,0.07,WUHU216HW,2013-02-17 02:07:00,
2013-02-16 21:12:00,31.7,16.8,29.76,NE,45,2.9,5.4,54,0.00,,,0.07,WUHU216HW,2013-02-17 02:12:00,
2013-02-16 21:17:00,31.7,16.8,29.76,NNE,23,3.8,5.4,54,0.00,,,0.07,WUHU216HW,2013-02-17 02:17:00,
2013-02-16 21:22:00,31.5,16.8,29.77,NE,45,4.0,4.0,54,0.00,,,0.07,WUHU216HW,2013-02-17 02:22:00,
2013-02-16 21:27:00,31.3,16.6,29.77,NNE,23,0.4,4.5,54,0.00,,,0.07,WUHU216HW,2013-02-17 02:27:00,
2013-02-16 21:32:00,31.3,16.6,29.77,North,0,4.0,4.5,54,0.00,,,0.07,WUHU216HW,2013-02-17 02:32:00,
2013-02-16 21:37:00,31.1,16.4,29.76,NNE,23,1.8,8.1,54,0.00,,,0.07,WUHU216HW,2013-02-17 02:37:00,
2013-02-16 21:42:00,31.1,16.4,29.76,North,0,0.0,8.1,54,0.00,,,0.07,WUHU216HW,2013-02-17 02:42:00,
2013-02-16 21:47:00,31.0,16.2,29.76,NNE,23,3.4,3.4,54,0.00,,,0.07,WUHU216HW,2013-02-17 02:47:00,
2013-02-16 21:52:00,31.0,16.2,29.76,NNE,23,0.0,3.4,54,0.00,,,0.07,WUHU216HW,2013-02-17 02:52:00,
2013-02-16 21:57:00,30.8,16.0,29.76,North,0,0.2,3.4,54,0.00,,,0.07,WUHU216HW,2013-02-17 02:57:00,
2013-02-16 22:02:00,30.6,15.8,29.75,NE,45,3.4,7.4,54,0.00,,,0.07,WUHU216HW,2013-02-17 03:02:00,
2013-02-16 22:07:00,30.6,15.8,29.75,East,90,0.7,7.4,54,0.00,,,0.07,WUHU216HW,2013-02-17 03:07:00,
2013-02-16 22:12:00,30.6,15.8,29.75,ENE,68,4.0,5.1,54,0.00,,,0.07,WUHU216HW,2013-02-17 03:12:00,
2013-02-16 22:17:00,30.6,15.8,29.75,North,0,2.7,4.7,54,0.00,,,0.07,WUHU216HW,2013-02-17 03:17:00,
2013-02-16 22:22:00,30.6,15.8,29.75,NNE,23,1.1,4.7,54,0.00,,,0.07,WUHU216HW,2013-02-17 03:22:00,
2013-02-16 22:27:00,30.6,15.8,29.75,NNE,23,1.1,6.3,54,0.00,,,0.07,WUHU216HW,2013-02-17 03:27:00,
2013-02-16 22:32:00,30.4,15.7,29.75,NNE,23,0.7,6.7,54,0.00,,,0.07,WUHU216HW,2013-02-17 03:32:00,
2013-02-16 22:37:00,30.4,15.7,29.74,NNE,23,4.7,6.7,54,0.00,,,0.07,WUHU216HW,2013-02-17 03:37:00,
2013-02-16 22:42:00,30.4,16.1,29.74,NNE,23,8.3,8.3,55,0.00,,,0.07,WUHU216HW,2013-02-17 03:42:00,
2013-02-16 22:47:00,30.2,15.5,29.74,NNE,23,6.9,8.3,54,0.00,,,0.07,WUHU216HW,2013-02-17 03:47:00,
2013-02-16 22:52:00,30.2,15.9,29.74,NNE,23,0.0,8.3,55,0.00,,,0.07,WUHU216HW,2013-02-17 03:52:00,
2013-02-16 22:57:00,30.1,15.4,29.74,NNE,23,0.9,6.9,54,0.00,,,0.07,WUHU216HW,2013-02-17 03:57:00,
2013-02-16 23:02:00,30.1,15.8,29.74,NNE,23,0.0,6.9,55,0.00,,,0.07,WUHU216HW,2013-02-17 04:02:00,
2013-02-16 23:07:00,29.9,15.6,29.74,NNE,23,1.1,6.9,55,0.00,,,0.07,WUHU216HW,2013-02-17 04:07:00,
2013-02-16 23:12:00,29.9,15.6,29.73,NNE,23,0.9,3.4,55,0.00,,,0.07,WUHU216HW,2013-02-17 04:12:00,
2013-02-16 23:17:00,29.9,15.6,29.72,NNE,23,1.3,3.4,55,0.00,,,0.07,WUHU216HW,2013-02-17 04:17:00,
2013-02-16 23:22:00,29.7,15.5,29.71,NNE,23,3.4,3.6,55,0.00,,,0.07,WUHU216HW,2013-02-17 04:22:00,
2013-02-16 23:27:00,29.9,15.6,29.70,NNE,23,6.5,6.5,55,0.00,,,0.07,WUHU216HW,2013-02-17 04:27:00,
2013-02-16 23:32:00,29.9,15.2,29.70,NNE,23,2.5,6.5,54,0.00,,,0.07,WUHU216HW,2013-02-17 04:32:00,
2013-02-16 23:37:00,29.9,15.2,29.70,NNE,23,2.9,6.5,54,0.00,,,0.07,WUHU216HW,2013-02-17 04:37:00,
2013-02-16 23:42:00,29.9,15.2,29.70,NNE,23,1.8,4.9,54,0.00,,,0.07,WUHU216HW,2013-02-17 04:42:00,
2013-02-16 23:47:00,29.9,15.2,29.70,NNE,23,6.0,6.3,54,0.00,,,0.07,WUHU216HW,2013-02-17 04:47:00,
2013-02-16 23:52:00,29.7,15.0,29.69,NNE,23,0.4,6.3,54,0.00,,,0.07,WUHU216HW,2013-02-17 04:52:00,
2013-02-16 23:57:00,29.7,15.0,29.70,NNE,23,4.9,6.0,54,0.00,,,0.07,WUHU216HW,2013-02-17 04:57:00,